The New Orleans Track Club

New Orleans' premier running organization
promoting health and fitness since 1963

Bursting with Speed 5K

Saturday, April 11, 2015, 8:15 AM

Lake Pontchartrain Lakefront, Metairie, LA

Benefiting the Leukemia and Lymphoma Society

In Memory of Benny Burst

On Saturday, April 11th, 2015, several hundred runners, walkers, and volunteers gathered at the Bucktown Harbor Marina for the inaugural Bursting with Speed 5k benefitting the Leukemia & Lymphoma Society (LLS). The idea for the Bursting with Speed 5k race was developed by NOTC member Scott Burst in memory of his father, Benny Burst, an avid runner who passed away from blood cancer.

Race day temperatures were in the 70s with overcast skies, slightly winds, and humid weather. The 5k race, which ran out and back along the levee path along Lake Pontchartrain, began at 8:15 A.M. with Team Smoothie's honorary captain, New Orleans Pelicans Jrue Holiday, blowing the start horn for the race.

Kevin Castille ran away from the men's field in a time of 14:43 to capture the $1,000 first place cash prize, just one week after being the first Louisiana finisher in the Crescent City Classic 10k. Finishing within seconds of each other were Micah Tirop in second place (15:28, $500 cash prize) and Richard Bouckaert in third place (15:30, $250 cash prize). Fresh off her top-local female finish in the Crescent City Classic 10k from the previous week, Michelle Parks ran to victory and $1,000 in the ladies' race in a time of 18:11. Not far behind in second place and winning $500 was Megan Gohres in a time of 18:37. Posting a time of 19:17, Laura Aleman rounded out the top three in the ladies' race, picking up $250.

All race participants and volunteers were treated to a post-race party that included live music by the band, The Vettes and the following refreshments: Elmer's Chee Wees, Bakermaid cookies, jambalaya provided by Cook Me Somethin' Mister, smoothies from Smoothie King, Kentwood Spring water, beer from Crescent Crown, soft drinks, red beans and rice, and fruit. Race participants stuck around afterward for awesome raffle prizes and giveaways that included ten random $300 cash prizes, a night at the Roosevelt Hotel, Smoothie King gift certificates, Southern Runner gift certificates, gym memberships to The Parks, gym memberships to Premier Fitness, a luxurious massage and facial treatment at The Ritz-Carlton spa, Martin Wine Cellar gift card, gift certificates to Two Tony's, House of Blues concert tickets, and H2O Salon & Spa gift basket with gift card, a 3-month membership to HOB Foundation Room, a cooking school gift card, GG's Dine-o-Rama gift card, free Fit Camp sessions, and a gift card to In N Out Car Wash.

We appreciate the Burst family for their significant involvement in this race and thank all of our sponsors and partners for making this even possible: Carver, Darden, Koretzky, Tessier, Finn, Blossman, & Areaux LLC; First NBC Bank; Mac Papers; Smoothie King; Elmer's Chee Wees; Bakermaid; Cook Me Somethin' Mister; Louisiana's Health and Fitness Magazine; The Offices at 1050; Kentwood Springs; and Halpern.

Questions or comments about these results? Contact results@runNOTC.org.

5K Results

Place Male Age Time Female Age Time
Overall
1 Kevin Castille 43 14:43 Michelle Parks 30 18:11
2 Micah Tirop 32 15:28 Megan Gohres 29 18:37
3 Richard Bouckaert 30 15:30 Laura Aleman 24 19:19
Youth (15 and Under)
1 Ben Turner 12 22:21 Sadie Burst 11 21:50
Masters (40 and Over)
1 Brandon Wingate 40 17:29 Maria Martinez 46 20:44
Grandmasters (50 and Over)
1 Van Merceron 53 19:15 Leslie Schroth 55 26:04
Seniors (60 and Over)
1 Van Temple 63 22:49 Germaine Carroll 60 28:39
15-Under
1 Caleb Burst 10 23:07 Conery Schmidt 13 21:52
16-19
1 Joshua Nichols 18 24:46 Natalie Aguillard 17 21:12
20-29
1 Max Miller 25 15:47 Mary Erin Allerton 29 20:27
30-39
1 Michael Arcuri 32 18:23 Connie Lizotte 38 19:31
40-49
1 Michael Jourdan 45 21:20 Anita Rippen 40 23:13
50-59
1 Timothy Priest 50 20:20 Stephanie Veron 50 27:14
60-69
1 Patrick Clancy Jr 67 22:58 Susan Sabrio 64 29:09
70-79
1 Larry Schlueter 70 23:14 Lynn Plotkin 70 55:36
80-Over
Beverly Mahoney 80 55:35
Racewalkers Overall
1 William Phelps 70 35:54 Anne Marie St.Clair 54 34:01

Runner Division

Place Name Age Gun Time Chip Time Pace Bib
1 Kevin Castille 43 14:43 14:42 4:44 2
2 Micah Tirop 32 15:28 15:26 4:59 314
3 Richard Bouckaert 30 15:30 15:28 4:59 28
4 Max Miller 25 15:47 15:45 5:05 191
5 Andrew Shapero 22 16:01 16:00 5:09 256
6 Brandon Wingate 40 17:29 17:27 5:38 390
7 Michael Arcuri 32 18:23 18:21 5:55 349
8 Robert Stevens 29 19:07 19:05 6:09 265
9 Van Merceron 53 19:15 19:12 6:11 190
10 Wilfredo Aguirre 37 19:21 19:18 6:13 5
11 Brandon Ferrari 26 19:53 19:51 6:24 301
12 Greg Hornberger 30 20:01 19:57 6:26 335
13 Kevin Marshall 28 20:04 19:57 6:26 172
14 Timothy Priest 50 20:20 20:16 6:32 228
15 Christopher Williams 55 21:02 21:02 6:47 293
16 Randy Schmidt 52 21:02 20:56 6:45 402
17 Christopher Perez 29 21:13 21:08 6:49 222
18 Michael Jourdan 45 21:20 21:15 6:51 315
19 Michael Burst 46 21:50 21:47 7:01 49
20 Michael Ellis 37 21:53 21:47 7:01 320
21 Joshua Pahl 29 21:59 21:46 7:01 316
22 Rick Crozier 48 22:00 21:47 7:01 409
23 Kelly Fogarty 51 22:05 21:58 7:05 113
24 Ben Turner 12 22:21 22:18 7:11 275
25 Shawn Burst, Sr. 49 22:39 22:34 7:17 58
26 Jonathan Leit 38 22:43 22:31 7:15 156
27 Chris Mysing 47 22:46 22:40 7:18 199
28 Van Temple 63 22:49 22:37 7:17 271
29 Jeffrey Schwartz 33 22:51 22:39 7:18 366
30 Patrick Clancy Jr 67 22:58 22:51 7:22 76
31 Michael Laughlin 26 23:03 22:48 7:21 387
32 Jeffrey Cardinale 40 23:04 22:57 7:24 65
33 Caleb Burst 10 23:07 23:03 7:26 43
34 Matthew Ellis 11 23:07 23:03 7:26 341
35 Larry Schlueter 70 23:14 23:08 7:27 373
36 Mark Nichols 50 23:23 23:15 7:30 310
37 Keelan Collins 15 23:28 23:13 7:29 80
38 James Hebert 62 23:29 23:22 7:32 136
39 Christopher Drewes 26 23:29 23:29 7:34 100
40 Kevin Brewer 34 23:31 23:24 7:33 37
41 Chris Nicolosi 50 23:37 23:25 7:33 305
42 Jimmy Roche 60 23:41 23:34 7:36 371
43 Michael Heneghan 49 23:47 23:29 7:34 412
44 Edward Mcdonald 49 24:11 24:05 7:46 325
45 Thomas Parker 61 24:25 24:18 7:50 219
46 John Maske 38 24:33 24:25 7:52 183
47 Clyde Carroll 62 24:39 24:32 7:54 68
48 John Runkel 12 24:43 24:39 7:57 378
49 Joshua Nichols 18 24:46 24:37 7:56 309
50 Jason Joubert 42 24:47 24:39 7:57 143
51 Ricky Martin 11 24:58 24:54 8:02 181
52 Charlie Martin 10 24:58 24:54 8:02 174
53 John Rink 12 25:10 24:41 7:57 414
54 Cole Turner 8 25:13 25:09 8:06 278
55 Benny Collins 58 25:13 24:57 8:02 78
56 Kevin McCabe 44 25:16 25:09 8:06 185
57 Paul Gegenheimer 30 25:21 24:59 8:03 393
58 Adam Aldahir 11 25:24 25:21 8:10 7
59 Michael Davis 48 26:04 25:43 8:17 92
60 Bryan Cook 54 26:07 26:00 8:23 83
61 Regino Abaeo 33 26:08 25:41 8:17 51
62 Bo Cibilic 30 26:14 25:25 8:11 360
63 Thomas Mavromatis 11 26:18 26:15 8:27 353
64 Jack Stogner 16 26:19 26:04 8:24 266
65 Aidan Kriek 11 26:26 26:22 8:30 350
66 Kenneth Prados 58 26:27 26:19 8:29 227
67 Sammy Mauromatis 10 26:30 26:26 8:31 352
68 Scott Burst 47 26:33 26:22 8:30 1
69 Craig Dolese 29 26:36 26:22 8:30 346
70 Lea Westlake 33 26:37 26:27 8:31 291
71 Kade Rogers 33 26:41 26:26 8:31 239
72 Wade Benoit 45 26:47 26:36 8:34 20
73 Deanie Morgan 33 26:52 26:29 8:32 196
74 William Moore 11 26:57 26:53 8:40 375
75 Jude Clum Stockton 11 27:01 26:57 8:41 340
76 Thomas Haralson 23 27:04 26:34 8:34 133
77 Matt Reynolds 26 27:05 26:35 8:34 364
78 Jeff Seruntine 49 27:06 26:49 8:38 255
79 Justin Manale 31 27:06 26:54 8:40 170
80 Earle Pope 70 27:11 26:58 8:42 355
81 Colin Turner 48 27:14 27:07 8:44 279
82 Glen Duhe 50 27:15 26:59 8:42 103
83 Mark Duplessis 28 27:16 26:59 8:42 105
84 Darryl Sorensen 60 27:17 27:04 8:43 260
85 Nick Leblanc 54 27:18 27:02 8:43 155
86 David Sabrio 64 27:27 27:15 8:47 248
87 Jonathan Miron 31 27:29 27:16 8:47 193
88 Bobby Turner 65 27:37 27:28 8:51 276
89 Kenneth Boe 48 27:37 26:56 8:41 24
90 Stephen Lobre 47 27:52 27:36 8:54 162
91 Ryan O'Leary 21 28:09 28:00 9:02 211
92 Jacob Oubre 20 28:09 28:00 9:02 217
93 Andrew Hoffmann 58 28:36 28:27 9:10 139
94 Jim Hanzo 58 28:38 28:24 9:09 132
95 Keith S 58 28:40 28:28 9:10 246
96 Joe Omner 61 28:45 28:35 9:13 369
97 Dewey Spies 68 28:48 28:39 9:14 357
98 Guerre Fabacher 36 28:59 28:26 9:10 108
99 Kris Kiefer 47 28:59 28:50 9:17 147
100 Rooney Lacoste 52 29:00 28:37 9:13 381
101 Benny Burst 52 29:00 28:38 9:13 312
102 Stacy Collins 44 29:01 28:29 9:11 81
103 Jim Knoth 37 29:15 28:54 9:19 148
104 Jimmy Knoth 8 29:15 28:54 9:19 149
105 Michael Martin 41 29:18 28:21 9:08 178
106 Joseph Rink 18 29:20 28:51 9:18 416
107 Andrew Ludlum 50 29:24 28:59 9:20 327
108 Austin Umbach 15 29:30 28:34 9:12 282
109 Zach Vandergriff 29 29:36 29:01 9:21 284
110 Noah Runkel 15 29:46 29:39 9:33 367
111 Peter Giovingo 47 29:50 29:31 9:31 116
112 Daryl Campbell 49 29:51 29:51 9:37 386
113 Chalin Delavne 25 29:51 29:01 9:21 372
114 Ryan Pepper 32 30:04 29:53 9:38 221
115 Richard Barfield 0 30:18 29:52 9:37 401
116 Michael Grumich 69 30:26 30:15 9:45 122
117 Matthew Joubert 10 30:52 30:36 9:52 144
118 Greg Caro 46 30:52 30:30 9:50 66
119 Dickie Longo 77 31:36 31:24 10:07 164
120 Daniel Barras 39 31:38 31:24 10:07 15
121 Blaine Lew 38 31:48 31:22 10:06 157
122 Jonathon Griffin 43 31:54 31:15 10:04 119
123 Gavin O'Brien 7 32:01 31:22 10:06 210
124 Daniel O'Brien 41 32:02 31:23 10:07 209
125 Stephen Lobre, Jr. 26 32:06 31:49 10:15 163
126 Joshua Alarcon 28 32:08 31:35 10:11 410
127 Matthew Gaudet 33 33:17 32:55 10:36 392
128 Tim Barker 48 33:39 33:05 10:40 14
129 David Castro Spears 50 33:43 33:03 10:39 263
130 Ralph Lehmann 61 34:36 34:22 11:04 347
131 Jeff Brown 32 35:05 34:46 11:12 404
132 Ryan Estaris 34 35:07 34:48 11:13 403
133 Audie Guilbeau 36 35:13 35:01 11:17 124
134 Andrew Cooper 8 35:14 34:52 11:14 84
135 Mike Dezern 55 35:29 34:54 11:15 96
136 Tyson Rogers 36 35:35 35:19 11:23 242
137 Kaiden Cortez 9 35:40 35:11 11:20 90
138 James Gidlow 72 37:45 37:02 11:56 115
139 Matthew Harvard 37 39:21 38:36 12:26 376
140 Henry Cooper 6 40:27 40:03 12:54 86
141 Manuel Zubieta 30 41:18 40:44 13:07 339
142 David Gonzales 12 41:18 40:22 13:00 306
143 Peter Villarrubia Jr 26 41:32 41:18 13:18 289
144 Patrick Girard 31 41:34 41:12 13:17 117
145 Craig Hanson 50 42:36 41:38 13:25 303
146 Evan Garrity 28 43:41 43:02 13:52 114
147 Cameron Howard 16 45:22 45:11 14:34 302
148 Ian Silva 12 47:49 46:55 15:07 311
149 Barry Boudreaux 48 49:01 48:09 15:31 29
150 Jesse Cannon 67 51:38 51:00 16:26 63
151 Mcmahon Mahoney 14 52:27 52:06 16:47 408
152 Peter Villarrubia 59 53:20 52:26 16:54 288
153 Michael Calamari 11 53:42 52:58 17:04 356
154 Michael Calamari 49 53:42 52:58 17:04 374
155 John Cooper 34 54:45 54:17 17:29 87
156 Marc Lagattuta 37 54:45 54:18 17:30 151
157 Michael Cooper 35 54:46 54:20 17:30 88
158 Jerry McCrory 63 57:27 56:48 18:18 186
159 Timothy Sawyer 44 58:00 56:42 18:16 251
160 Heinz Ordonez 45 1:00:45 1:00:01 19:20 212
161 David Siegel 65 1:04:17 1:03:14 20:22 389
162 John Ortiz 47 1:06:07 1:05:03 20:57 215
163 Buck Silva 51 1:06:49 1:05:54 21:14 258

Racewalker Division

Place Name Age Gun Time Chip Time Pace Bib
1 William Phelps 70 35:54 35:51 11:33 224
2 Gary Sells 63 35:54 35:51 11:33 254
3 Cecil St Clair 68 35:54 35:51 11:33 383
4 John Beaumont 70 44:33 44:28 14:20 396

Runner Division

Place Name Age Gun Time Chip Time Pace Bib
1 Michelle Parks 30 18:11 18:09 5:51 344
2 Megan Gohres 29 18:37 18:35 5:59 323
3 Laura Aleman 24 19:19 19:17 6:13 361
4 Connie Lizotte 38 19:31 19:29 6:17 160
5 Eva Lustigova 34 20:15 20:13 6:31 165
6 Mary Erin Allerton 29 20:27 20:23 6:34 345
7 Maria Martinez 46 20:44 20:41 6:40 354
8 Bethany Burst 24 20:51 20:46 6:42 42
9 Natalie Aguillard 17 21:12 21:09 6:49 4
10 Heather Fitzhenry 24 21:26 21:23 6:54 112
11 Lauren Ybarzabal 26 21:31 21:28 6:55 298
12 Lauren Jewett 28 21:38 21:32 6:56 141
13 Sadie Burst 11 21:50 21:47 7:01 50
14 Conery Schmidt 13 21:52 21:46 7:01 252
15 Courtney Bouckaert 29 22:13 22:05 7:07 27
16 Chelsye Benson 27 22:20 22:15 7:10 21
17 Julia Beery 14 22:26 22:20 7:12 17
18 Olivia Pitt 12 23:03 22:57 7:24 368
19 Anita Rippen 40 23:13 23:08 7:27 328
20 Ella Rogers 2 23:13 23:13 7:29 238
21 Johanna Chambers 40 23:27 23:22 7:32 72
22 Lindsay Dvorak 24 23:28 23:10 7:28 106
23 Chrissie Roux 39 23:33 23:29 7:34 243
24 Vanessa Burst 41 23:54 23:49 7:41 53
25 Mae Casey 24 24:39 24:11 7:48 365
26 Annette Dean 35 24:42 24:26 7:52 93
27 Lynn Crozier 46 24:45 24:22 7:51 405
28 Lori Gaston 39 24:54 24:42 7:58 317
29 Laura Butcher 14 25:00 24:54 8:01 59
30 Mary Grace Rome 49 25:03 24:39 7:57 388
31 Chelsea Gist 27 25:24 25:16 8:09 118
32 Michelle Turner 46 25:26 25:22 8:10 280
33 Danielle Pepper 31 25:34 25:24 8:11 220
34 Ashley Rosenberry 27 25:35 25:09 8:06 326
35 Kim Martin 44 25:50 25:26 8:12 177
36 Katherine Ellis 9 25:57 25:54 8:21 321
37 Chloe Nicolosi 21 26:01 25:50 8:19 304
38 Leslie Schroth 55 26:04 25:52 8:20 253
39 Ellie Quinn 22 26:10 25:48 8:19 229
40 Ardenne Martin 23 26:10 26:10 8:26 173
41 Shelley Montamat 23 26:12 25:53 8:21 194
42 Mallory Omner 28 26:30 26:19 8:29 370
43 Chloe Burst 7 26:31 26:03 8:24 44
44 Sandy Johnson 49 26:49 26:32 8:33 400
45 Rachel Guillot 24 27:01 26:47 8:38 127
46 Caroline Turner 10 27:12 27:08 8:45 277
47 Ellen Swisher 25 27:12 26:56 8:41 297
48 Stephanie Veron 50 27:14 27:00 8:42 286
49 Elizabeth Mavromatis 44 27:15 27:05 8:44 351
50 Miranda Eichler 29 27:21 27:07 8:44 107
51 Anita Montero 47 27:28 27:13 8:46 195
52 Morgan Martin 16 27:49 27:45 8:57 179
53 Denali Lander 27 27:52 27:37 8:54 300
54 Angele Sanders 56 28:05 27:49 8:58 329
55 Trennesse Mosley 52 28:07 27:51 8:58 197
56 Claire Buckley 28 28:29 27:48 8:57 39
57 Clare Levy 21 28:30 27:56 9:00 358
58 Germaine Carroll 60 28:39 28:31 9:12 69
59 Camille Jacobs 9 29:01 28:36 9:13 385
60 Rennie Jacobs 44 29:02 28:36 9:13 382
61 Sophia Mauromatis 14 29:04 28:53 9:19 342
62 Ruth Picou 39 29:06 28:49 9:17 225
63 Susan Sabrio 64 29:09 28:56 9:19 249
64 Tina Marquardt 48 29:15 29:00 9:21 171
65 Dawn Guillory 46 29:19 28:53 9:18 126
66 Lisa Umbach 46 29:29 28:37 9:13 283
67 Michelle Aguilar 25 29:35 29:01 9:21 3
68 Jenna Berniok 28 29:39 29:31 9:31 22
69 Lisa Bode 50 29:41 29:27 9:29 23
70 Allison Conravey 37 29:43 29:24 9:28 397
71 Julia Katz 44 29:49 29:35 9:32 343
72 Olivia Rink 17 29:53 29:25 9:29 413
73 Angie Delaney 43 29:55 29:20 9:27 94
74 Gretchen Clum 47 30:03 29:52 9:38 322
75 Jessica Lange 24 30:22 30:04 9:41 154
76 Patricia Lacoste 47 30:27 30:04 9:41 380
77 Holly Fabacher 36 30:34 30:01 9:40 109
78 Jenny Caro 46 30:52 29:49 9:36 67
79 Ashley McKenney 25 31:16 30:58 9:59 188
80 Madison Uli 2 31:29 31:21 10:06 281
81 Leshaun Huff 26 31:38 31:24 10:07 140
82 Judith Stone-Collins 49 32:05 31:46 10:14 267
83 Davis Natalie 41 32:20 32:14 10:23 334
84 Danielle Milligan 49 32:33 32:19 10:25 192
85 Stephanie Moore 45 32:54 32:44 10:33 377
86 Sahra Braunlich 34 33:07 32:42 10:32 35
87 Melissa Johnson 43 33:07 32:34 10:30 363
88 Brooke Baker 44 33:13 32:56 10:37 12
89 Eliana Kriek 9 33:18 33:14 10:43 330
90 Laura Kriek 45 33:19 33:09 10:41 319
91 Sophie Rink 13 33:35 33:06 10:40 395
92 Kimberly Guilbeau 36 33:59 33:47 10:53 125
93 Annette Kirkpatrick 38 34:33 34:28 11:06 333
94 Dylan Mauberret 15 34:35 34:25 11:05 184
95 Marcia Finkelstein 64 34:38 34:03 10:58 111
96 Beth Cooper 34 35:12 34:51 11:14 85
97 Stacie Kerry 35 35:14 34:45 11:12 146
98 Ashlie Maske 32 35:20 35:01 11:17 182
99 Dria Abramson 23 35:21 34:42 11:11 399
100 Marissa Stpe 30 35:39 35:09 11:20 268
101 Gabrielle Gros 25 35:51 35:24 11:24 120
102 Amy Rogan 31 36:17 35:44 11:31 236
103 Jeannine Campeaux 21 36:39 36:04 11:37 62
104 Christine Dupre 41 36:50 36:43 11:50 331
105 Suzanne Pareti 47 37:38 36:48 11:51 218
106 Dana Lobre 45 37:42 37:25 12:04 161
107 Anna Lehmann 60 38:59 38:44 12:29 348
108 Rachel Reso 26 39:22 39:01 12:34 230
109 Monica Linam 27 40:28 40:01 12:54 159
110 Sara Cooper 35 40:33 40:08 12:56 89
111 Jennifer Sabludowsky 24 41:01 40:33 13:04 247
112 Kimberly Bourgeois 15 41:32 41:23 13:20 33
113 Pracheil Amy 26 41:34 41:00 13:12 338
114 Faith Burst 5 41:42 40:39 13:06 45
115 Brieanne Bourgeois 20 41:48 41:39 13:25 31
116 Colleen Vizents 31 41:53 41:07 13:15 290
117 Yvette Burst 42 42:17 41:46 13:27 55
118 Stacy Burst 53 42:19 41:55 13:30 313
119 Sheila Marriott 55 43:07 42:49 13:48 336
120 Ebony Sheffield 27 43:20 42:39 13:45 257
121 Callie Henry 14 43:31 42:58 13:51 137
122 Liz Lew 36 43:34 43:05 13:53 158
123 Katherine Asevedo 52 43:38 42:58 13:51 332
124 Corey Neuberger 26 43:41 43:03 13:52 206
125 Debbie Downs 44 43:51 43:29 14:01 99
126 Ljubica Cibilic 38 44:27 43:45 14:06 75
127 Gracie Rink 14 45:12 44:43 14:25 411
128 Lauren Favret 31 46:04 45:16 14:35 110
129 Claudette Henry 44 46:28 45:54 14:47 138
130 Terry Toler 45 46:28 45:55 14:48 273
131 Heather Mahoney 54 46:34 46:17 14:55 168
132 Sonia Lomarchino 58 46:42 46:11 14:53 415
133 Connie Boudreaux 49 49:53 49:00 15:47 30
134 Gwen St.pierre 52 51:03 50:26 16:15 264
135 Mary Cannon 57 51:37 51:00 16:26 64
136 Jean Villarrubia 59 53:20 52:26 16:53 287
137 Toddria Hall 23 53:34 53:04 17:06 129
138 Crystal Hall 21 53:35 53:04 17:06 128
139 Sarah Walton 34 54:45 54:17 17:29 391
140 Beverly Mahoney 80 55:35 54:56 17:42 307
141 Brenda Farrell 0 55:36 54:56 17:42 394
142 Lynn Plotkin 70 55:36 54:56 17:42 308
143 Grace Sawyer 8 55:45 54:27 17:32 359
144 Jasmyn Chaisson 22 56:17 55:30 17:53 70
145 Judy Chaisson 59 56:17 55:30 17:53 71
146 Gabriella Burst 27 56:27 56:00 18:02 46
147 Kathleen Sobol 42 56:28 55:58 18:02 259
148 Kimberly Conway 42 56:28 55:59 18:02 82
149 Elaine Boos 54 56:28 55:51 17:59 25
150 Ida Harrison 52 56:56 56:11 18:06 134
151 Mary McCrory 62 57:28 56:50 18:19 187
152 Dawn Martin 37 58:00 56:39 18:15 175
153 Judith Martin 72 58:00 56:38 18:15 176
154 Heather Normand 17 58:23 58:14 18:46 207
155 Mary Bourgeois 49 58:23 58:14 18:46 34
156 Isabelle Ordonez 15 1:00:01 59:18 19:06 213
157 Marjorie Kraus 64 1:04:17 1:03:14 20:22 150
158 Janel Ortiz 46 1:06:07 1:05:03 20:57 214
159 Penny Land 49 1:06:07 1:05:10 21:00 153
160 Kira Bray 32 1:06:49 1:05:52 21:13 36
161 Tiffany Thomas 32 1:06:52 1:05:53 21:13 318

Racewalker Division

Place Name Age Gun Time Chip Time Pace Bib
1 Anne Marie St.Clair 54 34:01 33:58 10:57 384
2 Pat Driscoll 61 36:01 35:57 11:35 324
3 Jane Phelps 68 40:40 40:36 13:05 223
4 Tina Childs 51 47:45 47:40 15:22 74
5 Catherine Sowa 50 48:02 47:56 15:27 261
Year Male Winner Time Female Winner Time
(*) Event record time.
2017 Alfred Kiplagat 14:47 Katherine Telfeyan * 17:04
2016 Alfred Kiplagat * 14:37 Katherine Telfeyan 17:48
2015 Kevin Castille 14:43 Michelle Parks 18:11

Beneficiary

Leukemia & Lymphoma Society Team in Training

The New Orleans Track Club and the Leukemia & Lymphoma Society are teaming up to fight blood cancer! Join our team!

This is the inaugural year of the Bursting with Speed 5k in memory of Benny Burst through the great partnership of the New Orleans Track Club (NOTC) and the Leukemia & Lymphoma Society (LLS). Come join us on April 11 at the Bucktown Marina for a 5k race. All money raised will benefit the Leukemia & Lymphoma Society (LLS). LLS funds critical research to find a cure for blood cancers, develop improved therapies, and support patients and their families. Your donation helps save lives not someday, but today.

Run with us, donate, spread the word, and join our team in the fight against blood cancers.

THANK YOU!

Race Administration

The Bursting with Speed 5K is produced by the New Orleans Track Club, a not-for-profit organization and a member of the Road Runners Club of America and USA Track & Field. For more information contact the NOTC via email at notc@runNOTC.org or phone 504-304-2326.